Voltar ao catálogo

SL-16 DEB

AtivoLEO
NORAD 22407·DEBRIS·🇷🇺 Russia

Lançado Dec 25, 1992 de Baikonur Cosmodrome

Loading…

Próximas Passagens (próximas 24 horas)

TLE

AtualizadoSource: Space-Track

Época: Sep 14, 2026, 08:08 UTC

1 22407U 92093CY  26257.33889972  .00000079  00000-0  98598-4 0  9998
2 22407  70.8591 121.5937 0180532 276.9161  81.1438 13.84236683696376

Acompanhe SL-16 DEB em tempo real com AllMySat

Download on the App Store